KC7NGC-B Weather Reports


time (UTC)temp
F
wind
direction
speed
knots
gust
knots
rain 1hr
in
rain 24hr
in
rain mn
in
humidity
%
barometer
mb
20260509203625 74 125 3.5 6.1 0.00 0.00 0.00 32 1020.8
20260509202627 74 189 7.0 9.6 0.00 0.00 0.00 32 1021.1
20260509201644 73 169 1.7 3.5 0.00 0.00 0.00 32 1021.1
20260509200620 72 188 3.5 5.2 0.00 0.00 0.00 32 1021.3
20260509195641 72 129 2.6 2.6 0.00 0.00 0.00 33 1021.3
20260509194636 72 125 2.6 6.1 0.00 0.00 0.00 35 1021.3
20260509193632 72 99 3.5 6.1 0.00 0.00 0.00 34 1021.4
20260509192637 72 51 4.3 5.2 0.00 0.00 0.00 31 1021.7
20260509191649 71 340 3.5 6.1 0.00 0.00 0.00 32 1021.9
20260509190625 70 328 3.5 4.3 0.00 0.00 0.00 34 1021.8
20260509185635 70 164 4.3 6.1 0.00 0.00 0.00 34 1022.0
20260509184626 70 177 7.0 8.7 0.00 0.00 0.00 35 1022.1
20260509183640 70 181 2.6 3.5 0.00 0.00 0.00 35 1022.2
20260509182641 69 185 0.9 2.6 0.00 0.00 0.00 37 1022.2
20260509181633 69 335 1.7 2.6 0.00 0.00 0.00 36 1022.5
20260509180635 68 242 0.9 1.7 0.00 0.00 0.00 41 1022.4
20260509175633 68 4 4.3 8.7 0.00 0.00 0.00 37 1022.4
20260509174632 67 249 2.6 5.2 0.00 0.00 0.00 41 1022.6
20260509173631 68 302 3.5 4.3 0.00 0.00 0.00 39 1022.5
20260509172624 67 51 1.7 2.6 0.00 0.00 0.00 43 1022.9
20260509171624 67 309 2.6 4.3 0.00 0.00 0.00 41 1022.6
20260509170623 65 210 1.7 3.5 0.00 0.00 0.00 43 1022.9
20260509165641 64 219 0.0 1.7 0.00 0.00 0.00 43 1022.8
20260509164634 64 183 3.5 6.1 0.00 0.00 0.00 46 1022.7
20260509163632 65 175 2.6 3.5 0.00 0.00 0.00 45 1022.7
20260509162632 63 200 1.7 2.6 0.00 0.00 0.00 45 1023.0
20260509161631 63 264 0.9 2.6 0.00 0.00 0.00 46 1022.8
20260509160628 63 3 0.0 1.7 0.00 0.00 0.00 45 1023.0
20260509155628 63 9 2.6 4.3 0.00 0.00 0.00 48 1022.9
20260509154620 62 325 2.6 3.5 0.00 0.00 0.00 48 1023.0
20260509153622 62 10 2.6 3.5 0.00 0.00 0.00 50 1023.0
20260509152640 63 44 0.9 1.7 0.00 0.00 0.00 48 1023.0
20260509151658 62 268 0.9 2.6 0.00 0.00 0.00 49 1022.9
20260509150636 61 226 0.9 1.7 0.00 0.00 0.00 50 1022.9
20260509145632 61 209 2.6 3.5 0.00 0.00 0.00 54 1022.8
20260509144630 59 354 1.7 3.5 0.00 0.00 0.00 55 1022.8
20260509143648 58 338 2.6 3.5 0.00 0.00 0.00 58 1022.7
20260509142623 57 15 2.6 3.5 0.00 0.00 0.00 59 1022.5
20260509141622 56 5 3.5 3.5 0.00 0.00 0.00 60 1022.6
20260509140618 55 339 2.6 3.5 0.00 0.00 0.00 62 1022.6
20260509135639 54 357 1.7 2.6 0.00 0.00 0.00 66 1022.4
20260509134633 53 297 0.9 1.7 0.00 0.00 0.00 68 1022.5
20260509133657 52 251 0.0 0.9 0.00 0.00 0.00 69 1022.2
20260509132653 52 231 0.0 0.9 0.00 0.00 0.00 66 1022.1
20260509131648 53 0.0 0.0 0.00 0.00 0.00 65 1022.2
20260509130625 52 311 0.9 1.7 0.00 0.00 0.00 65 1022.1
20260509125625 52 336 1.7 2.6 0.00 0.00 0.00 65 1022.2
20260509124620 51 58 0.0 0.9 0.00 0.00 0.00 68 1022.0
20260509123623 51 346 1.7 3.5 0.00 0.00 0.00 69 1022.0
20260509122641 50 257 1.7 2.6 0.00 0.00 0.00 70 1021.9
20260509121656 54 360 4.3 6.1 0.00 0.00 0.00 62 1022.3
20260509120631 54 265 2.6 5.2 0.00 0.00 0.00 60 1021.9
20260509115632 54 251 2.6 5.2 0.00 0.00 0.00 60 1022.0
20260509114627 54 233 1.7 3.5 0.00 0.00 0.00 61 1022.0
20260509113648 54 258 1.7 2.6 0.00 0.00 0.00 61 1021.8
20260509112625 52 75 0.9 1.7 0.00 0.00 0.00 64 1022.0
20260509111620 55 212 1.7 3.5 0.00 0.00 0.00 58 1021.8
20260509110618 52 201 0.9 1.7 0.00 0.00 0.00 64 1021.9
20260509105633 52 0.0 0.9 0.00 0.00 0.00 63 1022.0
20260509104635 55 225 1.7 2.6 0.00 0.00 0.00 58 1021.8
20260509103632 56 155 1.7 1.7 0.00 0.00 0.00 56 1021.7
20260509102629 56 249 3.5 5.2 0.00 0.00 0.00 56 1021.7
20260509101625 56 248 2.6 3.5 0.00 0.00 0.00 56 1021.7
20260509100624 57 259 2.6 3.5 0.00 0.00 0.00 54 1021.7
20260509095624 56 211 3.5 5.2 0.00 0.00 0.00 54 1021.6
20260509094620 56 234 2.6 3.5 0.00 0.00 0.00 54 1021.4
20260509093656 57 310 4.3 5.2 0.00 0.00 0.00 52 1021.2
20260509092639 57 247 4.3 7.0 0.00 0.00 0.00 52 1021.3
20260509091631 56 258 4.3 7.8 0.00 0.00 0.00 54 1021.2
20260509090655 57 271 3.5 6.1 0.00 0.00 0.00 51 1021.3
20260509085628 57 253 7.0 9.6 0.00 0.00 0.00 50 1021.0
20260509084630 57 261 4.3 7.8 0.00 0.00 0.00 49 1020.9
20260509083621 58 248 6.1 8.7 0.00 0.00 0.00 48 1021.1
20260509082624 58 252 4.3 6.1 0.00 0.00 0.00 48 1021.1
20260509081621 58 235 5.2 7.8 0.00 0.00 0.00 47 1020.9
20260509080640 58 243 3.5 4.3 0.00 0.00 0.00 49 1020.9
20260509075634 58 192 3.5 7.0 0.00 0.00 0.00 49 1021.2
20260509074635 58 222 2.6 3.5 0.00 0.00 0.00 47 1020.9
20260509073655 60 216 4.3 7.0 0.00 0.00 0.00 45 1020.8
20260509072648 59 224 4.3 7.8 0.00 0.00 0.00 44 1020.7
20260509071629 60 199 2.6 3.5 0.00 0.00 0.00 44 1020.6
20260509070623 59 224 1.7 3.5 0.00 0.00 0.00 44 1020.5
20260509065643 60 229 4.3 5.2 0.00 0.00 0.00 43 1020.3
20260509064620 61 221 2.6 4.3 0.00 0.00 0.00 42 1020.4
20260509063637 62 239 3.5 4.3 0.00 0.00 0.00 40 1020.1
20260509062655 62 244 2.6 3.5 0.00 0.00 0.00 39 1020.0
20260509061630 62 230 2.6 6.1 0.00 0.00 0.00 39 1019.8
20260509060631 62 274 6.1 8.7 0.00 0.00 0.00 38 1019.9
20260509055632 61 243 5.2 9.6 0.00 0.00 0.00 39 1019.7
20260509054628 62 263 3.5 6.1 0.00 0.00 0.00 37 1019.9
20260509053642 61 283 2.6 3.5 0.00 0.00 0.00 38 1019.7
20260509052623 62 307 4.3 6.1 0.00 0.00 0.00 36 1019.6
20260509051619 64 289 7.8 11.3 0.00 0.00 0.00 34 1019.4
20260509050634 63 298 8.7 11.3 0.00 0.00 0.00 34 1019.3
20260509045633 63 297 7.0 9.6 0.00 0.00 0.00 33 1019.1
20260509044634 63 256 3.5 6.1 0.00 0.00 0.00 35 1019.2
20260509043652 62 225 4.3 5.2 0.00 0.00 0.00 35 1019.2
20260509042626 64 233 2.6 3.5 0.00 0.00 0.00 33 1019.0
20260509041627 64 238 2.6 2.6 0.00 0.00 0.00 31 1018.9
20260509040626 66 268 2.6 5.2 0.00 0.00 0.00 29 1018.6
20260509035620 66 308 8.7 9.6 0.00 0.00 0.00 27 1018.4
20260509034637 67 292 7.0 8.7 0.00 0.00 0.00 26 1018.2
20260509033638 67 287 4.3 5.2 0.00 0.00 0.00 27 1018.1
20260509032656 67 272 3.5 7.0 0.00 0.00 0.00 26 1018.1
20260509031655 66 308 3.5 4.3 0.00 0.00 0.00 27 1017.6
20260509030633 68 293 3.5 4.3 0.00 0.00 0.00 24 1017.3
20260509025631 69 358 6.1 10.4 0.00 0.00 0.00 22 1017.0
20260509024624 70 360 4.3 7.8 0.00 0.00 0.00 21 1017.2
20260509023624 71 332 5.2 6.1 0.00 0.00 0.00 21 1017.0
20260509022622 73 343 6.1 9.6 0.00 0.00 0.00 20 1016.8
20260509021625 74 318 8.7 12.2 0.00 0.00 0.00 23 1016.7
20260509020641 75 304 10.4 13.9 0.00 0.00 0.00 22 1016.3
20260509015637 76 313 7.8 11.3 0.00 0.00 0.00 21 1016.5
20260509014631 76 312 7.0 10.4 0.00 0.00 0.00 19 1016.3
20260509013651 76 241 2.6 3.5 0.00 0.00 0.00 23 1016.5
20260509012631 76 229 5.2 10.4 0.00 0.00 0.00 25 1016.3
20260509011623 76 225 5.2 7.0 0.00 0.00 0.00 26 1016.3
20260509010622 76 214 5.2 9.6 0.00 0.00 0.00 25 1016.2
20260509005620 76 205 7.0 13.0 0.00 0.00 0.00 25 1016.1
20260509004641 76 210 7.8 12.2 0.00 0.00 0.00 24 1016.2
20260509003634 77 204 6.1 8.7 0.00 0.00 0.00 23 1016.0
20260509002638 78 301 10.4 13.0 0.00 0.00 0.00 16 1016.2
20260509001629 78 282 6.1 10.4 0.00 0.00 0.00 17 1015.9
20260509000652 78 260 7.8 11.3 0.00 0.00 0.00 16 1016.1
20260508235625 78 299 9.6 13.9 0.00 0.00 0.00 15 1016.2
20260508234622 78 286 9.6 15.6 0.00 0.00 0.00 15 1016.1
20260508233620 79 322 8.7 10.4 0.00 0.00 0.00 14 1015.9
20260508232621 78 344 10.4 13.9 0.00 0.00 0.00 16 1016.1
20260508231636 75 202 8.7 13.9 0.00 0.00 0.00 23 1016.0
20260508230634 76 196 8.7 13.0 0.00 0.00 0.00 21 1015.8
20260508225631 76 211 10.4 13.9 0.00 0.00 0.00 21 1016.0
20260508224631 76 209 8.7 14.8 0.00 0.00 0.00 21 1016.1
20260508223647 75 210 7.0 9.6 0.00 0.00 0.00 22 1016.3
20260508222648 75 213 10.4 15.6 0.00 0.00 0.00 21 1016.3
20260508221625 75 181 3.5 5.2 0.00 0.00 0.00 23 1016.1
20260508220631 75 209 7.8 11.3 0.00 0.00 0.00 22 1016.2
20260508215619 76 219 8.7 13.0 0.00 0.00 0.00 23 1016.2
20260508214638 76 248 4.3 10.4 0.00 0.00 0.00 24 1016.2
20260508213654 76 224 6.1 13.9 0.00 0.00 0.00 25 1016.4
20260508212711 75 214 8.7 14.8 0.00 0.00 0.00 23 1016.4
20260508211628 74 218 9.6 15.6 0.00 0.00 0.00 24 1016.4
20260508210629 74 215 12.2 18.2 0.00 0.00 0.00 24 1016.3
20260508205625 74 212 9.6 14.8 0.00 0.00 0.00 25 1016.3
20260508204621 74 215 6.1 12.2 0.00 0.00 0.00 26 1016.3